This demonstration page uses our WeatherBlox Daily Observations layout. Learn more.

Hourly Observations for November 24, 2015

Temp ( °F °C ) Dew Point ( °F °C ) Humidity (%) Winds ( mph kmh ) Pressure ( in mb ) Visibility ( mi km ) Precip ( " mm )
12:15 am 00:15 Clear 36 2 28 -2 75 75 SSE 8 13 30.03 1017 10 16.09344 0 0
12:35 am 00:35 Clear 36 2 28 -2 75 75 SSE 7 11 30.03 1017 10 16.09344 0 0
12:55 am 00:55 Clear 36 2 28 -2 75 75 SSE 8 13 30.03 1017 10 16.09344 0 0
1:15 am 01:15 Clear 36 2 28 -2 75 75 SSE 6 9 30.03 1017 10 16.09344 0 0
1:35 am 01:35 Clear 36 2 30 -1 81 81 SSE 7 11 29.97 1015 10 16.09344 0 0
1:55 am 01:55 Clear 36 2 28 -2 75 75 SSE 8 13 29.97 1015 10 16.09344 0 0
2:15 am 02:15 Clear 36 2 28 -2 75 75 SSE 7 11 29.97 1015 10 16.09344 0 0
2:35 am 02:35 Clear 34 1 28 -2 81 81 SSE 7 11 30 1016 10 16.09344 0 0
2:55 am 02:55 Clear 36 2 28 -2 75 75 SSE 8 13 29.97 1015 10 16.09344 0 0
3:15 am 03:15 Clear 36 2 28 -2 75 75 SSE 8 13 29.97 1015 10 16.09344 0 0
3:35 am 03:35 Clear 34 1 28 -2 81 81 SSE 9 15 30 1016 10 16.09344 0 0
3:55 am 03:55 Clear 34 1 28 -2 81 81 SSE 8 13 30 1016 10 16.09344 0 0
4:15 am 04:15 Clear 32 0 28 -2 87 87 SSE 9 15 29.97 1015 10 16.09344 0 0
4:35 am 04:35 Clear 34 1 28 -2 81 81 SSE 10 17 29.97 1015 10 16.09344 0 0
4:55 am 04:55 Clear 34 1 28 -2 81 81 SSE 10 17 29.97 1015 10 16.09344 0 0
5:15 am 05:15 Clear 34 1 28 -2 81 81 SSE 10 17 29.97 1015 10 16.09344 0 0
5:35 am 05:35 Clear 34 1 28 -2 81 81 SSE 8 13 29.97 1015 10 16.09344 0 0
5:55 am 05:55 Clear 32 0 28 -2 87 87 SSE 8 13 29.97 1015 10 16.09344 0 0
6:15 am 06:15 Clear 32 0 27 -3 80 80 SSE 9 15 29.97 1015 10 16.09344 0 0
6:35 am 06:35 Clear 32 0 27 -3 80 80 SSE 9 15 29.97 1015 10 16.09344 0 0
6:55 am 06:55 Clear 32 0 28 -2 87 87 SSE 9 15 29.97 1015 10 16.09344 0 0
7:15 am 07:15 Clear 32 0 27 -3 80 80 SSE 8 13 29.97 1015 10 16.09344 0 0
7:35 am 07:35 Sunny 32 0 27 -3 80 80 SSE 7 11 29.97 1015 10 16.09344 0 0
7:55 am 07:55 Sunny 32 0 28 -2 87 87 SSE 8 13 29.97 1015 10 16.09344 0 0
8:15 am 08:15 Sunny 32 0 28 -2 87 87 SSE 7 11 29.97 1015 10 16.09344 0 0
8:35 am 08:35 Sunny 34 1 28 -2 81 81 SSE 7 11 29.97 1015 10 16.09344 0 0
8:55 am 08:55 Sunny 36 2 30 -1 81 81 SSE 8 13 29.94 1014 10 16.09344 0 0
9:15 am 09:15 Sunny 37 3 30 -1 75 75 S 9 15 29.94 1014 10 16.09344 0 0
9:35 am 09:35 Sunny 39 4 30 -1 70 70 S 14 22 29.94 1014 10 16.09344 0 0
9:55 am 09:55 Sunny 41 5 30 -1 66 66 S 12 19 29.91 1013 10 16.09344 0 0
10:15 am 10:15 Sunny 41 5 30 -1 66 66 S 12 19 29.91 1013 10 16.09344 0 0
10:35 am 10:35 Sunny 43 6 30 -1 61 61 S 12 19 29.88 1012 10 16.09344 0 0
10:55 am 10:55 Sunny 45 7 30 -1 57 57 S 9 15 29.88 1012 10 16.09344 0 0
11:15 am 11:15 Sunny 46 8 30 -1 53 53 S 9 15 29.85 1011 10 16.09344 0 0
11:35 am 11:35 Sunny 46 8 32 0 57 57 S 9 15 29.85 1011 10 16.09344 0 0
11:55 am 11:55 Sunny 48 9 32 0 54 54 S 9 15 29.83 1010 10 16.09344 0 0
12:15 pm 12:15 Sunny 48 9 32 0 54 54 SSE 8 13 29.83 1010 10 16.09344 0 0
12:35 pm 12:35 Sunny 50 10 32 0 50 50 S 7 11 29.83 1010 10 16.09344 0 0
12:55 pm 12:55 Sunny 48 9 32 0 54 54 SSE 8 13 29.8 1009 10 16.09344 0 0
1:15 pm 13:15 Sunny 50 10 32 0 50 50 S 8 13 29.8 1009 10 16.09344 0 0
1:35 pm 13:35 Sunny 50 10 32 0 50 50 S 9 15 29.8 1009 10 16.09344 0 0
1:55 pm 13:55 Sunny 50 10 32 0 50 50 S 9 15 29.8 1009 10 16.09344 0 0
2:15 pm 14:15 Sunny 50 10 32 0 50 50 SSE 9 15 29.8 1009 10 16.09344 0 0
2:35 pm 14:35 Sunny 50 10 32 0 50 50 SSE 10 17 29.8 1009 10 16.09344 0 0
2:55 pm 14:55 Sunny 52 11 34 1 50 50 SSE 12 19 29.77 1008 10 16.09344 0 0
3:15 pm 15:15 Sunny 50 10 32 0 50 50 SSE 13 20 29.8 1009 10 16.09344 0 0
3:35 pm 15:35 Sunny 50 10 32 0 50 50 S 13 20 29.8 1009 10 16.09344 0 0
3:55 pm 15:55 Sunny 48 9 32 0 54 54 S 9 15 29.8 1009 10 16.09344 0 0
4:15 pm 16:15 Sunny 48 9 34 1 58 58 SSE 7 11 29.8 1009 10 16.09344 0 0
4:35 pm 16:35 Sunny 50 10 34 1 54 54 SSE 9 15 29.8 1009 10 16.09344 0 0
4:55 pm 16:55 Sunny 50 10 34 1 54 54 SSE 10 17 29.8 1009 10 16.09344 0 0
5:15 pm 17:15 Clear 46 8 34 1 62 62 SSE 6 9 29.8 1009 10 16.09344 0 0
5:35 pm 17:35 Clear 45 7 32 0 61 61 SSE 3 6 29.83 1010 10 16.09344 0 0
5:55 pm 17:55 Clear 43 6 32 0 66 66 SSE 3 6 29.83 1010 10 16.09344 0 0
6:15 pm 18:15 Clear 39 4 32 0 75 75 SSE 3 6 29.83 1010 10 16.09344 0 0
6:35 pm 18:35 Clear 36 2 30 -1 81 81 SE 3 6 29.85 1011 10 16.09344 0 0
6:55 pm 18:55 Clear 39 4 32 0 75 75 SSE 5 7 29.88 1012 10 16.09344 0 0
7:15 pm 19:15 Clear 37 3 30 -1 75 75 SE 3 6 29.88 1012 10 16.09344 0 0
7:35 pm 19:35 Clear 37 3 32 0 81 81 SE 5 7 29.88 1012 10 16.09344 0 0
7:55 pm 19:55 Clear 36 2 30 -1 81 81 SE 7 11 29.85 1011 10 16.09344 0 0
8:15 pm 20:15 Clear 36 2 32 0 87 87 SSE 7 11 29.85 1011 10 16.09344 0 0
8:35 pm 20:35 Clear 36 2 30 -1 81 81 SSE 6 9 29.85 1011 10 16.09344 0 0
8:55 pm 20:55 Clear 36 2 30 -1 81 81 SSE 6 9 29.85 1011 10 16.09344 0 0
9:15 pm 21:15 Clear 37 3 32 0 81 81 SSE 6 9 29.85 1011 10 16.09344 0 0
9:35 pm 21:35 Clear 36 2 30 -1 81 81 SSE 3 6 29.85 1011 10 16.09344 0 0
9:55 pm 21:55 Clear 32 0 28 -2 87 87 Calm 29.88 1012 10 16.09344 0 0
10:15 pm 22:15 Clear 34 1 30 -1 87 87 S 5 7 29.85 1011 10 16.09344 0 0
10:35 pm 22:35 Clear 36 2 30 -1 81 81 S 3 6 29.85 1011 10 16.09344 0 0
10:55 pm 22:55 Clear 36 2 32 0 87 87 SSE 5 7 29.85 1011 10 16.09344 0 0
11:15 pm 23:15 Clear 34 1 30 -1 87 87 SSE 6 9 29.85 1011 10 16.09344 0 0
11:35 pm 23:35 Clear 34 1 30 -1 87 87 S 6 9 29.85 1011 10 16.09344 0 0
11:55 pm 23:55 Clear 34 1 32 0 93 93 S 6 9 29.85 1011 10 16.09344 0 0

Powered by AerisWeather